Aérodrome :
LOGIN :

S'inscrire | Disclaimer

   EN    FR    IT 

 










Légende :    VFR   VFR Marginal   IFR   IFR Intensif   IFR Très Intensif
Visi : 
Plafond : 
>= 8 km
>= 3000ft
5 à 8 km
1000 à 3000 ft
1500m à 5 km
500 à 1000 ft
800 à 1500m
200 à 500 ft
< 800m
< 200 ft
Symboles :   Orages  Brouillard  Fortes neiges  Fortes précipitations  Vent > 20 kt
SIGMETs :   Divers  Orages  Givrage  Turbulence  Onde Orograph.  Cendres Volcan.







- Altitude de l'aérodrome : 479 ft
- Code IATA : DOL
- Voir les cartes d'approche


LFRG - Deauville

DERNIER METAR :
  • 171200Z AUTO 28003KT 200V010 9999 FEW028 21/14 Q1019 NOSIG

METARs EXPIRÉS :
  • 171130Z AUTO VRB05KT 9999 SCT031 19/13 Q1019 NOSIG
  • 171100Z AUTO 34005KT 300V040 9999 SCT026 BKN033 19/13 Q1019 NOSIG
  • 171030Z AUTO 36005KT 290V040 9999 SCT024 18/13 Q1019 NOSIG
  • 171000Z AUTO 33005KT 280V020 9999 BKN023 18/13 Q1020 NOSIG
  • 170930Z AUTO VRB03KT CAVOK 18/12 Q1020 NOSIG

TAF TAF LFRG
Valide du 17 à 12h jusqu'au 17 à 21h UTC


171100Z 1712/1721 33007KT CAVOK
ATIS : +33 2 31 65 65 36
Pas de NOTAMs connus pour ce terrain.



MET'MAP, la Météo Aéronautique d'un coup d'oeil ! - Copyright ORBIFLY Décembre 2007 - Disclaimer

ORBIFLY MET'MAP TEAM :

Programmation & Développement : Alexandra Zaïnal
Conception & Développement : Baudouin d'Aumeries
Co-Programmation & Développement : Marc-Olivier Méhu
Soutien technique & logistique : Manuel Goepfert

Contact : metmap@orbifly.com




SOURCES & CREDITS :

   NOAA